CST,Max TemperatureF,Mean TemperatureF,Min TemperatureF,Max Dew PointF,MeanDew PointF,Min DewpointF,Max Humidity, Mean Humidity, Min Humidity, Max Sea Level PressureIn, Mean Sea Level PressureIn, Min Sea Level PressureIn, Max VisibilityMiles, Mean VisibilityMiles, Min VisibilityMiles, Max Wind SpeedMPH, Mean Wind SpeedMPH, Max Gust SpeedMPH,PrecipitationIn, CloudCover, Events, WindDirDegrees
2010-11-1,83,71,59,65,60,52,87,67,47,30.15,30.09,30.04,10,10,6,25,5,39,0.00,5,,152
2010-11-2,69,67,65,65,63,62,93,89,84,30.06,29.95,29.88,10,8,2,15,7,18,0.85,7,Rain-Thunderstorm,114
2010-11-3,67,63,58,64,61,55,93,87,81,29.96,29.90,29.87,10,6,2,18,9,24,0.09,8,Rain,52
2010-11-4,64,53,41,55,42,34,93,65,36,30.02,29.97,29.92,10,9,7,22,10,28,0.00,3,Rain,343
2010-11-5,58,43,28,35,29,24,89,60,30,30.29,30.16,30.02,10,10,10,18,7,25,0.00,0,,328
2010-11-6,62,44,25,35,26,20,92,56,19,30.46,30.39,30.30,10,9,1,14,3,17,0.00,0,,14
2010-11-7,67,48,29,37,30,25,100,61,22,30.50,30.41,30.30,10,10,9,12,0,0,0.00,0,,87
2010-11-8,73,52,31,41,34,30,96,59,22,30.27,30.19,30.09,10,7,2,9,1,13,0.00,0,,196
2010-11-9,76,56,35,50,43,35,92,65,38,30.13,30.07,30.01,10,8,2,12,3,16,0.00,0,,158
2010-11-10,78,60,42,53,47,42,93,63,32,30.19,30.11,30.07,10,7,0,9,4,13,0.00,0,Fog,122
2010-11-11,78,58,38,49,44,38,96,61,26,30.31,30.26,30.19,10,8,1,10,3,13,0.00,0,,90
2010-11-12,80,60,39,52,44,38,96,62,28,30.30,30.24,30.18,10,9,2,16,5,24,0.00,0,,147
2010-11-13,69,59,49,58,52,45,96,82,68,30.19,30.15,30.09,10,9,2,12,7,17,0.04,6,Rain,291
2010-11-14,64,50,36,43,39,35,92,64,36,30.17,30.09,29.96,10,8,0,10,5,15,T,2,Fog,355
2010-11-15,62,56,49,56,51,45,96,84,71,29.98,29.79,29.65,10,6,2,14,6,17,1.61,8,Rain-Thunderstorm,50
2010-11-16,61,47,33,54,46,34,96,84,71,30.06,29.81,29.61,10,8,0,20,6,25,0.07,6,Fog-Rain-Thunderstorm,282
2010-11-17,67,49,31,50,37,30,96,65,34,30.17,30.08,30.02,10,6,0,15,6,20,0.15,1,Fog-Rain-Thunderstorm,150
2010-11-18,59,52,45,50,47,42,92,80,67,30.35,30.26,30.11,10,10,8,15,7,20,0.00,6,,334
2010-11-19,61,49,37,47,42,36,93,77,60,30.34,30.27,30.22,10,5,0,12,3,14,0.00,4,Fog,27
2010-11-20,64,50,36,51,44,35,96,78,60,30.31,30.22,30.18,10,3,0,7,1,14,0.00,4,Fog,136
2010-11-21,79,63,47,61,55,48,96,69,42,30.26,30.20,30.13,10,6,0,18,9,23,0.00,4,Fog,162
2010-11-22,82,71,60,62,59,57,90,67,43,30.17,30.11,30.04,10,10,9,22,10,25,0.00,5,,162
2010-11-23,85,74,63,68,65,61,93,71,48,30.12,30.07,30.01,10,8,1,12,6,15,0.09,6,Rain,177
2010-11-24,82,74,66,66,62,55,93,67,40,30.06,29.99,29.90,10,8,5,22,9,28,0.00,4,,168
2010-11-25,83,74,65,65,62,57,87,66,45,30.01,29.89,29.81,10,10,10,20,10,32,T,6,,168
2010-11-26,43,34,25,32,27,23,92,72,49,30.27,30.18,30.03,10,10,10,16,9,,0.00,2,Rain,359
2010-11-27,61,43,24,33,27,21,92,57,22,30.32,30.26,30.22,10,10,3,9,1,14,0.00,0,,356
2010-11-28,63,45,27,40,32,27,100,64,27,30.24,30.14,30.04,10,10,10,16,7,23,0.00,0,,129
2010-11-29,74,64,53,66,58,41,81,70,59,30.03,29.84,29.71,10,6,1,26,14,37,1.55,8,Rain-Thunderstorm,208
2010-11-30,59,45,31,55,42,26,93,72,50,30.32,30.06,29.84,10,8,2,18,7,29,0.63,6,Rain,300